Location: Birkenwerder
(52.6919°N, 13.2774°E)
Time: 23:08:16
(UTC+00:00)

Cosmos 1570 Rocket - Pass Details

Date: 05 October 2020
Orbit: 763 x 788 km, 74.1° (Epoch: 24 October)

Event Time Altitude Azimuth Distance (km) Brightness Sun altitude
Exits shadow 00:02:22 13° 66° (ENE) 2,172 6.7 -40.2°
Drops below altitude 10° 00:03:17 10° 57° (ENE) 2,360 7.0 -40.1°
Sets 00:06:32 0° 37° (NE) 3,296 8.1 -39.9°
